Location: Brno
(49.2000°N, 16.6330°E)
Time: 01:07:25
(UTC+01:00)

ISS - Visible Passes

Search period start: 07 March 2015 00:00
Search period end: 17 March 2015 00:00
Orbit: 396 x 408 km, 51.6° (Epoch: 06 March)

Date Brightness Start Highest point End Pass type
(mag) Time Alt. Az. Time Alt. Az. Time Alt. Az.
11 Mar -0.5 05:11:35 10° S 05:13:21 14° SE 05:15:12 10° ESE visible
13 Mar -1.5 05:00:37 10° SSW 05:03:22 26° SE 05:06:09 10° E visible
14 Mar -1.0 04:09:37 15° SSE 04:10:26 16° SE 04:12:34 10° E visible
15 Mar -2.6 04:51:20 19° SW 04:53:21 47° SSE 04:56:29 10° ENE visible
16 Mar -1.9 04:00:19 29° SE 04:00:19 29° SE 04:03:10 10° E visible
